• In Hungary
  • List of Countries
  • For 7 days
  • Water Temperature
  • Satellite Maps
  • Weather Map
  • News
  • Weather Widgets
  • user-avatar
    Login

    Hourly Weather Kirchheim unter Teck

    Today, 28 May, Monday

    Time Temperature Precipitation Wind Pressure Humidity
    00:00 +20°C° 0 mm 1 mps 734 mmHg 86%
    01:00 +19°C° 0 mm 1 mps 734 mmHg 87%
    02:00 +19°C° 0 mm 1 mps 734 mmHg 88%
    03:00 +18°C° 0 mm 1 mps 734 mmHg 90%
    04:00 +18°C° 0 mm 1 mps 734 mmHg 91%
    05:00 +19°C° 0 mm 1 mps 734 mmHg 89%
    06:00 +20°C° 0 mm 1 mps 734 mmHg 87%
    07:00 +21°C° 0 mm 1 mps 734 mmHg 84%
    08:00 +23°C° 0 mm 2 mps 734 mmHg 79%
    09:00 +24°C° 0 mm 2 mps 734 mmHg 74%
    10:00 +26°C° 0 mm 3 mps 734 mmHg 68%
    11:00 +27°C° 0.3 mm 3 mps 734 mmHg 65%
    12:00 +28°C° 0.3 mm 3 mps 734 mmHg 62%
    13:00 +28°C° 0.3 mm 3 mps 733 mmHg 59%
    14:00 +28°C° 0.5 mm 3 mps 733 mmHg 60%
    15:00 +28°C° 0.5 mm 3 mps 733 mmHg 62%
    16:00 +28°C° 0.5 mm 3 mps 732 mmHg 64%
    17:00 +27°C° 0.4 mm 2 mps 732 mmHg 70%
    18:00 +25°C° 0.4 mm 2 mps 732 mmHg 76%
    19:00 +24°C° 0.4 mm 2 mps 732 mmHg 82%
    20:00 +23°C° 0 mm 1 mps 732 mmHg 83%
    21:00 +22°C° 0 mm 1 mps 732 mmHg 84%
    22:00 +21°C° 0 mm 1 mps 732 mmHg 84%
    23:00 +20°C° 0.1 mm 1 mps 732 mmHg 85%

    Tomorrow, 29 May, Tuesday

    Time Temperature Precipitation Wind Pressure Humidity
    00:00 +19°C° 0.1 mm 1 mps 732 mmHg 85%
    01:00 +19°C° 0.1 mm 1 mps 732 mmHg 85%
    02:00 +19°C° 0.1 mm 1 mps 732 mmHg 86%
    03:00 +18°C° 0.1 mm 1 mps 732 mmHg 87%
    04:00 +18°C° 0.1 mm 1 mps 732 mmHg 87%
    05:00 +19°C° 0.1 mm 1 mps 732 mmHg 86%
    06:00 +20°C° 0.1 mm 1 mps 732 mmHg 85%
    07:00 +20°C° 0.1 mm 2 mps 732 mmHg 84%
    08:00 +21°C° 0.4 mm 2 mps 732 mmHg 80%
    09:00 +24°C° 0.4 mm 2 mps 732 mmHg 77%
    10:00 +25°C° 0.4 mm 2 mps 732 mmHg 73%
    11:00 +26°C° 1.1 mm 2 mps 732 mmHg 72%
    12:00 +26°C° 1.1 mm 2 mps 732 mmHg 70%
    13:00 +26°C° 1.1 mm 2 mps 731 mmHg 69%
    14:00 +27°C° 0.4 mm 2 mps 731 mmHg 68%
    15:00 +27°C° 0.4 mm 2 mps 731 mmHg 68%
    16:00 +27°C° 0.4 mm 2 mps 730 mmHg 68%
    17:00 +25°C° 1.4 mm 2 mps 730 mmHg 74%
    18:00 +24°C° 1.4 mm 1 mps 730 mmHg 80%
    19:00 +23°C° 1.4 mm 1 mps 730 mmHg 87%
    20:00 +22°C° 0.6 mm 1 mps 730 mmHg 88%
    21:00 +21°C° 0.6 mm 1 mps 731 mmHg 89%
    22:00 +20°C° 0.6 mm 1 mps 731 mmHg 90%
    23:00 +19°C° 0 mm 1 mps 731 mmHg 91%

    Day after tomorrow, 30 May, Wednesday

    Time Temperature Precipitation Wind Pressure Humidity
    00:00 +19°C° 0 mm 1 mps 730 mmHg 92%
    01:00 +18°C° 0 mm 1 mps 730 mmHg 92%
    02:00 +18°C° 0 mm 1 mps 730 mmHg 93%
    03:00 +18°C° 0 mm 1 mps 730 mmHg 93%
    04:00 +16°C° 0 mm 1 mps 730 mmHg 93%
    05:00 +18°C° 0 mm 1 mps 730 mmHg 91%
    06:00 +19°C° 0 mm 1 mps 730 mmHg 90%
    07:00 +20°C° 0 mm 1 mps 731 mmHg 88%
    08:00 +22°C° 0 mm 1 mps 731 mmHg 80%
    09:00 +24°C° 0 mm 1 mps 731 mmHg 72%
    10:00 +26°C° 0 mm 1 mps 731 mmHg 64%
    11:00 +26°C° 0 mm 1 mps 731 mmHg 61%
    12:00 +27°C° 0 mm 1 mps 730 mmHg 57%
    13:00 +28°C° 0 mm 2 mps 730 mmHg 53%
    14:00 +28°C° 0 mm 2 mps 730 mmHg 54%
    15:00 +28°C° 0 mm 2 mps 730 mmHg 54%
    16:00 +28°C° 0 mm 2 mps 729 mmHg 55%
    17:00 +27°C° 0 mm 2 mps 729 mmHg 61%
    18:00 +26°C° 0 mm 2 mps 729 mmHg 68%
    19:00 +25°C° 0 mm 1 mps 729 mmHg 74%
    20:00 +23°C° 0.2 mm 1 mps 730 mmHg 78%
    21:00 +22°C° 0.2 mm 1 mps 730 mmHg 82%
    22:00 +20°C° 0.2 mm 1 mps 730 mmHg 86%
    23:00 +20°C° 0.3 mm 1 mps 730 mmHg 86%

    31 May, Thursday

    Time Temperature Precipitation Wind Pressure Humidity
    00:00 +19°C° 0.3 mm 1 mps 730 mmHg 87%
    01:00 +17°C° 0.3 mm 0 mps 730 mmHg 88%
    02:00 +17°C° 0.1 mm 0 mps 730 mmHg 88%
    03:00 +19°C° 0.1 mm 1 mps 730 mmHg 88%
    04:00 +18°C° 0.1 mm 1 mps 730 mmHg 89%
    05:00 +19°C° 0.1 mm 1 mps 730 mmHg 87%
    06:00 +20°C° 0.1 mm 1 mps 730 mmHg 86%
    07:00 +21°C° 0.1 mm 1 mps 730 mmHg 85%
    08:00 +22°C° 0.5 mm 1 mps 731 mmHg 82%
    09:00 +23°C° 0.5 mm 1 mps 731 mmHg 79%
    10:00 +25°C° 0.5 mm 2 mps 731 mmHg 75%
    11:00 +25°C° 0.4 mm 2 mps 731 mmHg 72%
    12:00 +26°C° 0.4 mm 2 mps 730 mmHg 68%
    13:00 +27°C° 0.4 mm 3 mps 730 mmHg 65%
    14:00 +27°C° 0.4 mm 3 mps 730 mmHg 66%
    15:00 +26°C° 0.4 mm 3 mps 730 mmHg 67%
    16:00 +26°C° 0.4 mm 3 mps 730 mmHg 67%
    17:00 +26°C° 0.4 mm 2 mps 730 mmHg 72%
    18:00 +25°C° 0.4 mm 2 mps 730 mmHg 77%
    19:00 +24°C° 0.4 mm 2 mps 730 mmHg 82%
    20:00 +22°C° 0.3 mm 1 mps 731 mmHg 85%
    21:00 +21°C° 0.3 mm 1 mps 731 mmHg 89%
    22:00 +20°C° 0.3 mm 1 mps 731 mmHg 92%
    23:00 +19°C° 0.5 mm 1 mps 731 mmHg 93%

    1 June, Friday

    Time Temperature Precipitation Wind Pressure Humidity
    00:00 +19°C° 0.5 mm 1 mps 731 mmHg 94%
    01:00 +19°C° 0.5 mm 1 mps 731 mmHg 94%
    02:00 +19°C° 1 mm 1 mps 731 mmHg 95%
    03:00 +18°C° 1 mm 1 mps 731 mmHg 95%
    04:00 +18°C° 1 mm 1 mps 731 mmHg 96%
    05:00 +18°C° 1.3 mm 1 mps 732 mmHg 96%
    06:00 +19°C° 1.3 mm 1 mps 732 mmHg 96%
    07:00 +19°C° 1.3 mm 1 mps 732 mmHg 95%
    08:00 +19°C° 0.8 mm 2 mps 732 mmHg 94%
    09:00 +19°C° 0.8 mm 2 mps 733 mmHg 92%
    10:00 +20°C° 0.8 mm 2 mps 733 mmHg 90%
    11:00 +21°C° 0.8 mm 2 mps 733 mmHg 88%
    12:00 +21°C° 0.8 mm 3 mps 733 mmHg 85%
    13:00 +22°C° 0.8 mm 3 mps 733 mmHg 83%
    14:00 +22°C° 0.6 mm 3 mps 733 mmHg 81%
    15:00 +23°C° 0.6 mm 4 mps 732 mmHg 78%
    16:00 +23°C° 0.6 mm 4 mps 732 mmHg 76%
    17:00 +22°C° 0.4 mm 3 mps 732 mmHg 78%
    18:00 +21°C° 0.4 mm 3 mps 733 mmHg 80%
    19:00 +21°C° 0.4 mm 2 mps 733 mmHg 82%
    20:00 +20°C° 0 mm 3 mps 733 mmHg 82%
    21:00 +18°C° 0 mm 3 mps 733 mmHg 82%
    22:00 +17°C° 0 mm 3 mps 734 mmHg 82%
    23:00 +17°C° 0 mm 3 mps 734 mmHg 83%

    2 June, Saturday

    Time Temperature Precipitation Wind Pressure Humidity
    00:00 +16°C° 0 mm 3 mps 734 mmHg 84%
    01:00 +14°C° 0 mm 3 mps 734 mmHg 86%
    02:00 +14°C° 0 mm 3 mps 734 mmHg 88%
    03:00 +14°C° 0 mm 2 mps 734 mmHg 90%
    04:00 +13°C° 0 mm 2 mps 734 mmHg 92%
    05:00 +13°C° 0 mm 3 mps 734 mmHg 89%
    06:00 +14°C° 0 mm 3 mps 735 mmHg 86%
    07:00 +16°C° 0 mm 3 mps 735 mmHg 82%
    08:00 +17°C° 0 mm 3 mps 735 mmHg 75%
    09:00 +19°C° 0 mm 4 mps 735 mmHg 68%
    10:00 +20°C° 0 mm 4 mps 735 mmHg 61%
    11:00 +21°C° 0 mm 4 mps 735 mmHg 59%
    12:00 +22°C° 0 mm 4 mps 735 mmHg 57%
    13:00 +23°C° 0 mm 4 mps 735 mmHg 55%
    14:00 +23°C° 0 mm 4 mps 735 mmHg 55%
    15:00 +23°C° 0 mm 4 mps 735 mmHg 55%
    16:00 +23°C° 0 mm 4 mps 735 mmHg 56%
    17:00 +22°C° 0 mm 3 mps 735 mmHg 61%
    18:00 +21°C° 0 mm 3 mps 735 mmHg 67%
    19:00 +20°C° 0 mm 3 mps 735 mmHg 72%
    20:00 +19°C° 0 mm 3 mps 735 mmHg 74%
    21:00 +17°C° 0 mm 3 mps 735 mmHg 76%
    22:00 +16°C° 0 mm 3 mps 735 mmHg 78%
    23:00 +14°C° 0 mm 3 mps 735 mmHg 79%
    Show more